OE5RLP-14 Weather Reports


time (UTC)temp
F
wind
direction
speed
knots
gust
knots
rain 1hr
in
rain 24hr
in
rain mn
in
humidity
%
barometer
mb
20260506160433 69 189 7.8 13.0 0.00 0.00 0.00 47 1004.0
20260506155449 69 226 5.2 7.0 0.00 0.00 0.00 46 1004.1
20260506154427 70 188 8.7 13.9 0.00 0.00 0.00 44 1004.1
20260506153427 70 215 9.6 16.5 0.00 0.00 0.00 45 1004.0
20260506152427 70 181 9.6 16.5 0.00 0.00 0.00 44 1004.4
20260506151428 70 212 7.8 13.0 0.00 0.00 0.00 45 1004.6
20260506150504 71 192 7.0 13.0 0.00 0.00 0.00 45 1004.6
20260506145441 71 125 4.3 12.2 0.00 0.00 0.00 45 1004.8
20260506144439 71 202 3.5 6.1 0.00 0.00 0.00 45 1005.0
20260506143436 71 187 7.0 12.2 0.00 0.00 0.00 47 1005.0
20260506142433 71 258 1.7 5.2 0.00 0.00 0.00 47 1005.2
20260506141430 71 185 3.5 5.2 0.00 0.00 0.00 46 1005.1
20260506140427 70 121 3.5 7.0 0.00 0.00 0.00 50 1005.2
20260506135525 70 95 3.5 5.2 0.00 0.00 0.00 55 1005.2
20260506134428 70 94 6.1 9.6 0.00 0.00 0.00 54 1005.3
20260506133445 70 13 5.2 8.7 0.00 0.00 0.00 52 1005.4
20260506132443 71 72 3.5 3.5 0.00 0.00 0.00 52 1005.2
20260506131443 71 93 6.1 9.6 0.00 0.00 0.00 54 1005.9
20260506130442 73 88 4.3 7.8 0.00 0.00 0.00 51 1005.8
20260506125439 73 54 4.3 6.1 0.00 0.00 0.00 51 1006.0
20260506124436 73 20 4.3 6.1 0.00 0.00 0.00 52 1006.2
20260506123433 71 338 5.2 7.0 0.00 0.00 0.00 56 1006.5
20260506122429 71 40 2.6 3.5 0.00 0.00 0.00 53 1006.4
20260506121449 71 255 0.0 0.9 0.00 0.00 0.00 58 1006.5
20260506120448 70 84 6.1 7.8 0.00 0.00 0.00 60 1006.7
20260506115427 69 28 2.6 6.1 0.00 0.00 0.00 61 1006.9
20260506114446 69 30 5.2 7.8 0.00 0.00 0.00 60 1007.0
20260506113445 67 7 3.5 3.5 0.00 0.00 0.00 64 1007.2
20260506112444 67 99 7.0 13.0 0.00 0.00 0.00 67 1007.3
20260506111441 66 81 5.2 8.7 0.00 0.00 0.00 67 1007.5
20260506110438 66 61 3.5 6.1 0.00 0.00 0.00 64 1007.7
20260506105434 65 93 4.3 6.1 0.00 0.00 0.00 69 1007.9
20260506104430 64 53 1.7 2.6 0.00 0.00 0.00 70 1008.1
20260506103428 64 84 2.6 3.5 0.00 0.00 0.00 71 1008.1
20260506102428 64 98 3.5 3.5 0.00 0.00 0.00 70 1008.1
20260506101428 64 101 2.6 2.6 0.00 0.00 0.00 71 1008.4
20260506100427 64 96 1.7 2.6 0.00 0.00 0.00 70 1008.5
20260506095428 64 71 0.9 1.7 0.00 0.00 0.00 69 1008.5
20260506094504 64 88 7.0 9.6 0.00 0.00 0.00 68 1008.6
20260506093501 64 74 3.5 6.1 0.00 0.00 0.00 67 1008.8
20260506092442 63 94 3.5 3.5 0.00 0.00 0.00 69 1008.7
20260506091515 62 84 1.7 2.6 0.00 0.00 0.00 69 1009.1
20260506090434 62 88 7.0 8.7 0.00 0.00 0.00 70 1008.9
20260506085431 62 80 2.6 5.2 0.00 0.00 0.00 70 1008.9
20260506084428 62 81 1.7 2.6 0.00 0.00 0.00 68 1009.3
20260506083427 62 109 2.6 2.6 0.00 0.00 0.00 69 1009.1
20260506082428 61 46 2.6 3.5 0.00 0.00 0.00 69 1009.2
20260506081427 61 323 1.7 2.6 0.00 0.00 0.00 67 1009.1
20260506080426 61 332 3.5 5.2 0.00 0.00 0.00 70 1008.9
20260506073439 60 108 2.6 2.6 0.00 0.00 0.00 69 1009.6
20260506072435 61 82 2.6 3.5 0.00 0.00 0.00 68 1009.6
20260506071431 60 45 1.7 1.7 0.00 0.00 0.00 69 1009.5
20260506070429 61 60 2.6 5.2 0.00 0.00 0.00 70 1009.5
20260506062427 60 141 1.7 2.6 0.00 0.00 0.00 72 1009.9
20260506061446 60 0.0 0.0 0.00 0.00 0.00 70 1009.8
20260506060442 61 0.0 0.0 0.00 0.00 0.00 68 1009.9
20260506050428 56 159 0.9 1.7 0.00 0.00 0.00 74 1010.3
20260506044427 61 167 1.7 1.7 0.00 0.00 0.00 68 1010.1
20260506043427 60 177 0.9 1.7 0.00 0.00 0.00 71 1010.0
20260506042447 59 177 1.7 1.7 0.00 0.00 0.00 74 1010.2
20260506041442 57 183 1.7 1.7 0.00 0.00 0.00 76 1010.2
20260506040439 55 185 1.7 2.6 0.00 0.00 0.00 77 1010.6
20260506035436 55 228 1.7 2.6 0.00 0.00 0.00 78 1010.2
20260506034433 55 293 1.7 1.7 0.00 0.00 0.00 78 1010.2
20260506033450 55 293 2.6 3.5 0.00 0.00 0.00 77 1010.6
20260506032448 54 199 0.9 1.7 0.00 0.00 0.00 76 1010.3
20260506031447 55 198 0.9 1.7 0.00 0.00 0.00 74 1010.4
20260506030427 56 0.0 0.0 0.00 0.00 0.00 73 1010.1
20260506025428 56 224 0.9 0.9 0.00 0.00 0.00 73 1010.0
20260506024428 57 259 1.7 2.6 0.00 0.00 0.00 73 1010.2
20260506023445 57 215 4.3 7.0 0.00 0.00 0.00 73 1010.1
20260506022441 56 210 2.6 2.6 0.00 0.00 0.00 75 1010.3
20260506021458 56 225 2.6 3.5 0.00 0.00 0.00 76 1010.2
20260506020436 55 187 2.6 3.5 0.00 0.00 0.00 76 1010.2
20260506015432 56 187 1.7 1.7 0.00 0.00 0.00 76 1010.1
20260506014430 56 184 1.7 2.6 0.00 0.00 0.00 76 1010.4
20260506013508 56 218 1.7 1.7 0.00 0.00 0.00 76 1010.5
20260506012427 57 229 0.9 0.9 0.00 0.00 0.00 73 1010.9
20260506011427 57 226 2.6 5.2 0.00 0.00 0.00 74 1010.8
20260506010446 58 238 0.9 0.9 0.00 0.00 0.00 73 1011.0
20260506005507 58 281 3.5 3.5 0.00 0.00 0.00 72 1010.9
20260506004445 58 289 4.3 8.7 0.00 0.00 0.00 72 1010.8
20260506003439 58 293 5.2 7.8 0.00 0.00 0.00 73 1010.8
20260506002456 58 278 3.5 6.1 0.00 0.00 0.00 72 1010.8
20260506001435 58 275 5.2 7.8 0.00 0.00 0.00 73 1010.8
20260506000431 58 275 5.2 7.8 0.00 0.00 0.00 74 1010.8
20260505235427 58 298 5.2 9.6 0.00 0.00 0.00 73 1010.9
20260505234428 58 297 9.6 13.9 0.00 0.00 0.00 73 1010.7
20260505233448 59 295 9.6 14.8 0.00 0.00 0.00 74 1010.7
20260505232427 59 287 7.0 8.7 0.00 0.00 0.00 73 1010.5
20260505231427 59 278 7.8 13.9 0.00 0.00 0.00 72 1010.4
20260505230443 58 283 7.0 9.6 0.00 0.00 0.00 73 1010.2
20260505225442 58 285 5.2 7.8 0.00 0.00 0.00 74 1010.0
20260505224437 57 297 7.0 11.3 0.00 0.00 0.00 76 1009.8
20260505223435 57 270 5.2 7.8 0.00 0.00 0.00 74 1009.7
20260505222432 58 300 4.3 5.2 0.00 0.00 0.00 72 1009.6
20260505221512 59 287 2.6 2.6 0.00 0.00 0.00 69 1009.5
20260505220427 59 263 0.9 1.7 0.00 0.00 0.00 70 1009.3
20260505215426 59 266 0.9 1.7 0.00 0.00 0.00 70 1009.2
20260505214428 59 245 1.7 2.6 0.00 0.00 0.00 71 1009.1
20260505213427 59 267 2.6 3.5 0.00 0.00 0.00 71 1009.0
20260505212445 59 271 1.7 2.6 0.00 0.00 0.00 72 1009.0
20260505211442 59 289 3.5 5.2 0.00 0.00 0.00 72 1008.9
20260505210442 59 303 3.5 6.1 0.00 0.00 0.00 72 1009.0
20260505205436 59 288 3.5 5.2 0.00 0.00 0.00 71 1008.7
20260505204434 60 283 3.5 3.5 0.00 0.00 0.00 70 1008.8
20260505203433 60 284 4.3 5.2 0.00 0.00 0.00 69 1008.6
20260505202427 60 297 3.5 5.2 0.00 0.00 0.00 69 1008.3
20260505201428 60 285 3.5 6.1 0.00 0.00 0.00 69 1008.3
20260505200449 61 286 3.5 5.2 0.00 0.00 0.00 69 1008.2
20260505195430 61 286 4.3 5.2 0.00 0.00 0.00 68 1008.1
20260505194427 61 283 3.5 5.2 0.00 0.00 0.00 68 1008.1
20260505193443 61 286 3.5 6.1 0.00 0.00 0.00 68 1008.2
20260505192440 61 294 7.0 11.3 0.00 0.00 0.00 68 1008.0
20260505191437 61 296 1.7 1.7 0.00 0.00 0.00 68 1008.0
20260505190434 62 288 2.6 3.5 0.00 0.00 0.00 67 1007.8
20260505185431 62 278 5.2 7.8 0.00 0.00 0.00 66 1007.4
20260505184428 62 291 6.1 7.8 0.00 0.00 0.00 66 1007.1
20260505183454 62 283 7.8 14.8 0.00 0.00 0.00 67 1006.9
20260505182450 61 285 7.0 12.2 0.00 0.00 0.00 67 1006.8
20260505181445 61 249 10.4 15.6 0.00 0.00 0.00 68 1006.5
20260505180453 62 302 8.7 14.8 0.00 0.00 0.00 68 1006.8
20260505175444 63 292 11.3 15.6 0.00 0.00 0.00 65 1006.5
20260505174508 67 285 14.8 26.1 0.00 0.00 0.00 58 1006.1
20260505173505 71 0.0 0.0 0.00 0.00 0.00 46 1005.3
20260505172451 71 276 1.7 2.6 0.00 0.00 0.00 46 1005.3
20260505171447 71 244 0.9 1.7 0.00 0.00 0.00 46 1005.2
20260505170447 72 0.0 0.0 0.00 0.00 0.00 46 1005.2
20260505165442 72 0.0 0.0 0.00 0.00 0.00 46 1005.3
20260505164426 73 144 1.7 1.7 0.00 0.00 0.00 46 1005.3
20260505163428 74 132 0.0 0.9 0.00 0.00 0.00 46 1005.4
20260505162426 74 0.0 0.0 0.00 0.00 0.00 43 1005.3
20260505161442 74 0.0 0.0 0.00 0.00 0.00 41 1005.5